| time (UTC) | temp C | wind direction | speed KPH | gust KPH | rain 1hr cm | rain 24hr cm | rain mn cm | humidity % | barometer mb |
| 20260504151039 | 11 | 290 | 12.9 | 27.4 | 0.00 | 0.03 | 0.03 | 59 | 1005.5 |
| 20260504150540 | 11 | 279 | 12.9 | 27.4 | 0.00 | 0.03 | 0.03 | 58 | 1005.5 |
| 20260504141039 | 11 | 266 | 8.0 | 27.4 | 0.00 | 0.03 | 0.03 | 58 | 1004.7 |
| 20260504140544 | 11 | 259 | 11.3 | 27.4 | 0.00 | 0.03 | 0.03 | 59 | 1004.7 |
| 20260504130540 | 11 | 174 | 6.4 | 19.3 | 0.00 | 0.03 | 0.03 | 62 | 1004.8 |
| 20260504110539 | 6 | 157 | 4.8 | 12.9 | 0.00 | 0.03 | 0.03 | 84 | 1006.0 |
| 20260504100538 | 5 | 152 | 3.2 | 12.9 | 0.00 | 0.03 | 0.03 | 85 | 1006.2 |
| 20260504081549 | 4 | 142 | 3.2 | 12.9 | 0.00 | 0.03 | 0.03 | 81 | 1006.1 |
| 20260504081038 | 4 | 179 | 3.2 | 12.9 | 0.00 | 0.03 | 0.03 | 81 | 1006.2 |
| 20260504080542 | 4 | 173 | 3.2 | 12.9 | 0.00 | 0.03 | 0.03 | 82 | 1006.4 |
| 20260504050539 | 2 | 0 | 0.0 | 4.8 | 0.00 | 0.00 | 0.00 | 76 | 1006.6 |
| 20260504045538 | 2 | 148 | 1.6 | 9.7 | 0.00 | 0.00 | 0.00 | 74 | 1006.7 |
| 20260504045037 | 2 | 0 | 4.8 | 9.7 | 0.00 | 0.00 | 0.00 | 72 | 1006.8 |
| 20260504044551 | 2 | 138 | 1.6 | 6.4 | 0.00 | 0.00 | 0.00 | 75 | 1006.8 |
| 20260504044039 | 2 | 138 | 3.2 | 11.3 | 0.00 | 0.00 | 0.00 | 73 | 1006.8 |
| 20260504043539 | 2 | 144 | 1.6 | 11.3 | 0.00 | 0.00 | 0.00 | 72 | 1006.9 |
| 20260504043055 | 2 | 142 | 1.6 | 8.0 | 0.00 | 0.00 | 0.00 | 74 | 1007.0 |
| 20260504042540 | 2 | 0 | 3.2 | 8.0 | 0.00 | 0.00 | 0.00 | 72 | 1007.1 |
| 20260504042040 | 2 | 153 | 1.6 | 9.7 | 0.00 | 0.00 | 0.00 | 71 | 1007.1 |
| 20260504041548 | 2 | 150 | 1.6 | 9.7 | 0.00 | 0.00 | 0.00 | 71 | 1007.0 |
| 20260504041038 | 2 | 152 | 3.2 | 9.7 | 0.00 | 0.00 | 0.00 | 70 | 1006.9 |
| 20260504040536 | 2 | 171 | 4.8 | 9.7 | 0.00 | 0.00 | 0.00 | 70 | 1007.0 |
| 20260504040054 | 2 | 150 | 4.8 | 9.7 | 0.00 | 0.00 | 0.00 | 71 | 1007.0 |
| 20260504035538 | 2 | 150 | 3.2 | 8.0 | 0.00 | 0.00 | 0.00 | 71 | 1007.0 |
| 20260504035040 | 2 | 143 | 3.2 | 8.0 | 0.00 | 0.00 | 0.00 | 71 | 1006.9 |
| 20260504034553 | 2 | 161 | 4.8 | 8.0 | 0.00 | 0.00 | 0.00 | 71 | 1006.9 |
| 20260504034043 | 2 | 164 | 4.8 | 11.3 | 0.00 | 0.00 | 0.00 | 70 | 1006.9 |
| 20260504033540 | 2 | 165 | 4.8 | 11.3 | 0.00 | 0.00 | 0.00 | 69 | 1007.0 |
| 20260504033049 | 2 | 169 | 4.8 | 11.3 | 0.00 | 0.00 | 0.00 | 69 | 1007.0 |
| 20260504032541 | 2 | 159 | 6.4 | 12.9 | 0.00 | 0.00 | 0.00 | 68 | 1006.9 |
| 20260504032041 | 2 | 187 | 6.4 | 14.5 | 0.00 | 0.00 | 0.00 | 69 | 1007.0 |
| 20260504031548 | 2 | 147 | 6.4 | 14.5 | 0.00 | 0.00 | 0.00 | 69 | 1006.9 |
| 20260504031040 | 2 | 172 | 4.8 | 12.9 | 0.00 | 0.00 | 0.00 | 69 | 1007.0 |
| 20260504030539 | 2 | 140 | 4.8 | 12.9 | 0.00 | 0.00 | 0.00 | 69 | 1007.0 |
| 20260504030051 | 2 | 198 | 6.4 | 11.3 | 0.00 | 0.00 | 0.00 | 68 | 1007.1 |
| 20260504025540 | 2 | 161 | 6.4 | 11.3 | 0.00 | 0.00 | 0.00 | 68 | 1007.1 |
| 20260504025039 | 2 | 141 | 6.4 | 11.3 | 0.00 | 0.00 | 0.00 | 68 | 1007.2 |
| 20260504024551 | 2 | 135 | 6.4 | 12.9 | 0.00 | 0.00 | 0.00 | 68 | 1007.2 |
| 20260504024041 | 2 | 162 | 6.4 | 14.5 | 0.00 | 0.00 | 0.00 | 68 | 1007.2 |
| 20260504023539 | 2 | 148 | 6.4 | 14.5 | 0.00 | 0.00 | 0.00 | 68 | 1007.1 |
| 20260504023045 | 2 | 153 | 6.4 | 12.9 | 0.00 | 0.00 | 0.00 | 68 | 1007.1 |
| 20260504022541 | 3 | 170 | 4.8 | 12.9 | 0.00 | 0.00 | 0.00 | 68 | 1007.1 |
| 20260504022041 | 3 | 151 | 6.4 | 12.9 | 0.00 | 0.00 | 0.00 | 68 | 1007.1 |
| 20260504021552 | 3 | 175 | 6.4 | 12.9 | 0.00 | 0.00 | 0.00 | 67 | 1007.1 |
| 20260504021039 | 3 | 172 | 4.8 | 11.3 | 0.00 | 0.00 | 0.00 | 67 | 1007.2 |
| 20260504020540 | 3 | 169 | 4.8 | 11.3 | 0.00 | 0.00 | 0.00 | 66 | 1007.2 |
| 20260504020046 | 3 | 154 | 6.4 | 11.3 | 0.00 | 0.00 | 0.00 | 66 | 1007.3 |
| 20260504015540 | 3 | 152 | 6.4 | 11.3 | 0.00 | 0.00 | 0.00 | 66 | 1007.3 |
| 20260504015040 | 3 | 136 | 6.4 | 11.3 | 0.00 | 0.00 | 0.00 | 65 | 1007.2 |
| 20260504014548 | 3 | 162 | 6.4 | 11.3 | 0.00 | 0.00 | 0.00 | 65 | 1007.3 |
| 20260504014039 | 4 | 164 | 6.4 | 11.3 | 0.00 | 0.00 | 0.00 | 64 | 1007.2 |
| 20260504013539 | 4 | 164 | 6.4 | 9.7 | 0.00 | 0.00 | 0.00 | 63 | 1007.2 |
| 20260504013101 | 4 | 153 | 3.2 | 8.0 | 0.00 | 0.00 | 0.00 | 60 | 1007.1 |
| 20260504012539 | 5 | 151 | 3.2 | 8.0 | 0.00 | 0.00 | 0.00 | 59 | 1007.0 |
| 20260504012039 | 5 | 169 | 3.2 | 8.0 | 0.00 | 0.00 | 0.00 | 58 | 1007.1 |
| 20260504011545 | 5 | 183 | 3.2 | 6.4 | 0.00 | 0.00 | 0.00 | 56 | 1007.0 |
| 20260504011039 | 5 | 226 | 1.6 | 4.8 | 0.00 | 0.00 | 0.00 | 54 | 1006.9 |
| 20260504010539 | 6 | 226 | 1.6 | 4.8 | 0.00 | 0.00 | 0.00 | 53 | 1006.9 |
| 20260504010043 | 6 | 227 | 1.6 | 4.8 | 0.00 | 0.00 | 0.00 | 53 | 1006.8 |
| 20260504005546 | 6 | 227 | 1.6 | 6.4 | 0.00 | 0.00 | 0.00 | 53 | 1006.7 |
| 20260504005039 | 6 | 227 | 1.6 | 6.4 | 0.00 | 0.00 | 0.00 | 53 | 1006.7 |
| 20260504004546 | 6 | 227 | 1.6 | 6.4 | 0.00 | 0.00 | 0.00 | 52 | 1006.8 |
| 20260504004036 | 6 | 284 | 3.2 | 6.4 | 0.00 | 0.00 | 0.00 | 51 | 1006.6 |
| 20260504003538 | 6 | 287 | 3.2 | 6.4 | 0.00 | 0.00 | 0.00 | 51 | 1006.6 |
| 20260504003054 | 6 | 287 | 3.2 | 6.4 | 0.00 | 0.00 | 0.00 | 50 | 1006.6 |
| 20260504002538 | 6 | 287 | 1.6 | 4.8 | 0.00 | 0.00 | 0.00 | 50 | 1006.5 |
| 20260504002037 | 6 | 287 | 1.6 | 4.8 | 0.00 | 0.00 | 0.00 | 49 | 1006.5 |
| 20260504001552 | 6 | 287 | 1.6 | 6.4 | 0.00 | 0.00 | 0.00 | 49 | 1006.5 |
| 20260504001041 | 6 | 287 | 1.6 | 6.4 | 0.00 | 0.00 | 0.00 | 49 | 1006.5 |
| 20260504000538 | 7 | 287 | 3.2 | 6.4 | 0.00 | 0.00 | 0.00 | 49 | 1006.4 |
| 20260504000106 | 7 | 278 | 1.6 | 6.4 | 0.00 | 0.00 | 0.00 | 49 | 1006.5 |
| 20260503235537 | 7 | 302 | 1.6 | 8.0 | 0.00 | 0.05 | 0.00 | 49 | 1006.5 |
| 20260503235039 | 7 | 313 | 1.6 | 8.0 | 0.00 | 0.05 | 0.00 | 49 | 1006.4 |
| 20260503234549 | 7 | 297 | 3.2 | 9.7 | 0.00 | 0.05 | 0.00 | 48 | 1006.4 |
| 20260503234039 | 7 | 296 | 3.2 | 12.9 | 0.00 | 0.05 | 0.00 | 48 | 1006.4 |
| 20260503233539 | 7 | 307 | 3.2 | 14.5 | 0.00 | 0.05 | 0.00 | 48 | 1006.4 |
| 20260503233052 | 7 | 327 | 6.4 | 16.1 | 0.00 | 0.05 | 0.00 | 46 | 1006.4 |
| 20260503232540 | 7 | 258 | 6.4 | 19.3 | 0.00 | 0.05 | 0.00 | 46 | 1006.4 |
| 20260503232038 | 7 | 277 | 4.8 | 19.3 | 0.00 | 0.05 | 0.00 | 47 | 1006.2 |
| 20260503231554 | 8 | 302 | 8.0 | 19.3 | 0.00 | 0.05 | 0.00 | 47 | 1006.4 |
| 20260503231038 | 8 | 323 | 4.8 | 19.3 | 0.00 | 0.05 | 0.00 | 47 | 1006.4 |
| 20260503230542 | 8 | 302 | 9.7 | 19.3 | 0.00 | 0.05 | 0.00 | 45 | 1006.3 |
| 20260503230042 | 8 | 338 | 6.4 | 19.3 | 0.00 | 0.05 | 0.00 | 45 | 1006.3 |
| 20260503225538 | 8 | 300 | 11.3 | 22.5 | 0.00 | 0.08 | 0.00 | 43 | 1006.3 |
| 20260503225038 | 8 | 297 | 8.0 | 22.5 | 0.00 | 0.08 | 0.00 | 45 | 1006.3 |
| 20260503224558 | 8 | 289 | 9.7 | 24.1 | 0.00 | 0.08 | 0.00 | 44 | 1006.4 |
| 20260503224038 | 8 | 284 | 9.7 | 24.1 | 0.00 | 0.08 | 0.00 | 46 | 1006.4 |
| 20260503223538 | 8 | 294 | 4.8 | 24.1 | 0.00 | 0.08 | 0.00 | 46 | 1006.4 |
| 20260503223050 | 9 | 317 | 9.7 | 24.1 | 0.00 | 0.08 | 0.00 | 44 | 1006.2 |
| 20260503222539 | 9 | 308 | 9.7 | 20.9 | 0.00 | 0.08 | 0.00 | 43 | 1006.2 |
| 20260503222038 | 8 | 324 | 6.4 | 22.5 | 0.00 | 0.08 | 0.00 | 47 | 1006.2 |
| 20260503221556 | 8 | 327 | 11.3 | 22.5 | 0.00 | 0.08 | 0.00 | 46 | 1006.2 |
| 20260503221041 | 8 | 323 | 6.4 | 24.1 | 0.00 | 0.08 | 0.00 | 46 | 1006.2 |
| 20260503220539 | 8 | 328 | 12.9 | 24.1 | 0.00 | 0.08 | 0.00 | 47 | 1006.2 |
| 20260503220052 | 8 | 305 | 11.3 | 30.6 | 0.00 | 0.08 | 0.00 | 46 | 1006.1 |
| 20260503215539 | 8 | 332 | 16.1 | 30.6 | 0.00 | 0.08 | 0.00 | 45 | 1006.0 |
| 20260503215038 | 8 | 284 | 9.7 | 27.4 | 0.00 | 0.08 | 0.00 | 47 | 1006.1 |
| 20260503214547 | 8 | 312 | 14.5 | 27.4 | 0.00 | 0.08 | 0.00 | 46 | 1006.1 |
| 20260503214038 | 8 | 300 | 14.5 | 27.4 | 0.00 | 0.08 | 0.00 | 47 | 1006.2 |
| 20260503213539 | 8 | 296 | 12.9 | 24.1 | 0.00 | 0.08 | 0.00 | 47 | 1006.2 |
| 20260503213048 | 8 | 325 | 9.7 | 24.1 | 0.00 | 0.08 | 0.00 | 48 | 1006.2 |
| 20260503212538 | 8 | 327 | 9.7 | 24.1 | 0.00 | 0.08 | 0.00 | 48 | 1006.2 |
| 20260503212037 | 8 | 306 | 11.3 | 24.1 | 0.00 | 0.08 | 0.00 | 48 | 1006.2 |
| 20260503211550 | 8 | 323 | 11.3 | 22.5 | 0.00 | 0.08 | 0.00 | 47 | 1006.1 |
| 20260503211038 | 8 | 284 | 6.4 | 22.5 | 0.00 | 0.08 | 0.00 | 48 | 1006.1 |
| 20260503210539 | 8 | 315 | 11.3 | 22.5 | 0.00 | 0.08 | 0.00 | 47 | 1006.1 |
| 20260503210049 | 8 | 307 | 11.3 | 19.3 | 0.00 | 0.08 | 0.00 | 49 | 1006.0 |
| 20260503205539 | 8 | 284 | 11.3 | 27.4 | 0.00 | 0.08 | 0.00 | 47 | 1006.1 |
| 20260503205039 | 7 | 265 | 11.3 | 35.4 | 0.00 | 0.08 | 0.00 | 49 | 1006.1 |
| 20260503204609 | 7 | 309 | 11.3 | 35.4 | 0.00 | 0.08 | 0.00 | 48 | 1006.1 |
| 20260503204038 | 7 | 299 | 17.7 | 35.4 | 0.00 | 0.08 | 0.00 | 47 | 1006.1 |
| 20260503203539 | 8 | 302 | 17.7 | 30.6 | 0.00 | 0.08 | 0.00 | 47 | 1006.1 |
| 20260503203049 | 8 | 300 | 6.4 | 25.7 | 0.00 | 0.08 | 0.00 | 48 | 1006.1 |
| 20260503202538 | 8 | 288 | 12.9 | 25.7 | 0.00 | 0.08 | 0.00 | 49 | 1006.2 |
| 20260503202037 | 7 | 323 | 11.3 | 25.7 | 0.00 | 0.08 | 0.00 | 51 | 1006.1 |
| 20260503201546 | 7 | 308 | 14.5 | 25.7 | 0.00 | 0.08 | 0.00 | 50 | 1006.0 |
| 20260503201038 | 7 | 284 | 19.3 | 25.7 | 0.00 | 0.08 | 0.00 | 49 | 1006.2 |
| 20260503200538 | 7 | 311 | 12.9 | 27.4 | 0.00 | 0.08 | 0.00 | 50 | 1006.2 |
| 20260503200047 | 7 | 302 | 11.3 | 29.0 | 0.00 | 0.08 | 0.00 | 50 | 1006.2 |
| 20260503195538 | 7 | 306 | 14.5 | 29.0 | 0.00 | 0.08 | 0.00 | 49 | 1006.2 |
| 20260503195039 | 7 | 301 | 16.1 | 29.0 | 0.00 | 0.08 | 0.00 | 51 | 1006.4 |
| 20260503194549 | 7 | 273 | 17.7 | 29.0 | 0.00 | 0.08 | 0.00 | 50 | 1006.4 |
| 20260503194039 | 7 | 272 | 14.5 | 27.4 | 0.00 | 0.08 | 0.00 | 50 | 1006.4 |
| 20260503193539 | 7 | 298 | 11.3 | 30.6 | 0.00 | 0.08 | 0.00 | 51 | 1006.5 |
| 20260503193051 | 7 | 254 | 12.9 | 30.6 | 0.00 | 0.08 | 0.00 | 50 | 1006.4 |
| 20260503192539 | 7 | 309 | 16.1 | 37.0 | 0.00 | 0.08 | 0.00 | 49 | 1006.5 |
| 20260503192039 | 7 | 246 | 17.7 | 37.0 | 0.00 | 0.08 | 0.00 | 48 | 1006.5 |
| 20260503191608 | 7 | 278 | 14.5 | 32.2 | 0.00 | 0.08 | 0.00 | 48 | 1006.5 |
| 20260503191041 | 8 | 300 | 9.7 | 32.2 | 0.00 | 0.08 | 0.00 | 47 | 1006.4 |
| 20260503190539 | 8 | 281 | 9.7 | 25.7 | 0.00 | 0.08 | 0.00 | 50 | 1006.4 |
| 20260503190048 | 7 | 261 | 8.0 | 24.1 | 0.00 | 0.08 | 0.00 | 50 | 1006.4 |
| 20260503185537 | 7 | 352 | 14.5 | 25.7 | 0.00 | 0.08 | 0.00 | 49 | 1006.5 |
| 20260503185039 | 7 | 5 | 12.9 | 33.8 | 0.00 | 0.08 | 0.00 | 48 | 1006.4 |
| 20260503184547 | 7 | 346 | 17.7 | 33.8 | 0.00 | 0.08 | 0.00 | 47 | 1006.5 |
| 20260503184041 | 7 | 309 | 17.7 | 33.8 | 0.00 | 0.08 | 0.00 | 46 | 1006.5 |
| 20260503183538 | 7 | 313 | 11.3 | 35.4 | 0.00 | 0.08 | 0.00 | 48 | 1006.4 |
| 20260503183052 | 7 | 313 | 17.7 | 35.4 | 0.00 | 0.08 | 0.00 | 46 | 1006.5 |
| 20260503182536 | 7 | 312 | 14.5 | 30.6 | 0.00 | 0.08 | 0.00 | 47 | 1006.4 |
| 20260503182041 | 7 | 321 | 16.1 | 33.8 | 0.00 | 0.08 | 0.00 | 46 | 1006.5 |
| 20260503181552 | 8 | 302 | 12.9 | 33.8 | 0.00 | 0.08 | 0.00 | 45 | 1006.4 |
| 20260503181039 | 8 | 330 | 12.9 | 27.4 | 0.00 | 0.08 | 0.00 | 43 | 1006.2 |
| 20260503180539 | 8 | 325 | 14.5 | 32.2 | 0.00 | 0.08 | 0.00 | 44 | 1006.2 |
| 20260503180056 | 7 | 333 | 17.7 | 32.2 | 0.00 | 0.08 | 0.00 | 45 | 1006.4 |
| 20260503175538 | 7 | 349 | 12.9 | 27.4 | 0.00 | 0.13 | 0.00 | 46 | 1006.5 |
| 20260503175038 | 7 | 322 | 12.9 | 33.8 | 0.00 | 0.13 | 0.00 | 45 | 1006.6 |
| 20260503174552 | 7 | 35 | 16.1 | 33.8 | 0.00 | 0.13 | 0.00 | 45 | 1006.7 |
| 20260503174039 | 6 | 325 | 16.1 | 29.0 | 0.00 | 0.13 | 0.00 | 47 | 1006.6 |
| 20260503173539 | 7 | 331 | 11.3 | 30.6 | 0.00 | 0.13 | 0.00 | 51 | 1006.6 |
| 20260503173044 | 7 | 333 | 11.3 | 30.6 | 0.00 | 0.13 | 0.00 | 52 | 1006.5 |
| 20260503172537 | 7 | 300 | 14.5 | 30.6 | 0.00 | 0.13 | 0.00 | 51 | 1006.5 |
| 20260503172038 | 7 | 300 | 14.5 | 32.2 | 0.00 | 0.13 | 0.00 | 50 | 1006.4 |
| 20260503171550 | 7 | 324 | 17.7 | 32.2 | 0.00 | 0.13 | 0.00 | 47 | 1006.5 |
| 20260503171039 | 7 | 325 | 12.9 | 32.2 | 0.00 | 0.13 | 0.00 | 50 | 1006.5 |
| 20260503170540 | 7 | 332 | 12.9 | 30.6 | 0.00 | 0.13 | 0.00 | 48 | 1006.6 |